Terminal Aerodrome Forecast
Issued by NWS

Home | Current Version | Previous Version | Graphics & Text | Print | Product List | Glossary On
Versions: 1 2 3 4 5 6 7 8 9 10 11 12 13 14 15 16 17 18
000
FTUS42 KMHX 191300 AAA
TAFISO
TAF AMD
KISO 191308Z 1913/2012 26007KT P6SM SCT005
      TEMPO 1913/1915 5SM BR BKN005
     FM191900 30008KT P6SM VCTS BKN040CB
     FM200200 35004KT P6SM SCT040 BKN100
     FM200800 01003KT 4SM BR SCT007 BKN100
      AMD LTD TO CLD VIS AND WIND=

USA.gov is the U.S. government's official web portal to all federal, state and local government web resources and services.